EHI
0 0 0 0 0 0 0 0 0 0 0 0 0 0 0 0 0 0 0 0 0 0 0 0 0 0 0 0 0 0 0 0 0 0 0 0 0 0 0 0 0 0 0 0
0 0 0 0 0 0 0 0 0 0 0 0 0 0 0 0 0 0 0 0 0 0 0 0 0 0 0 0 0 0 0 0 0 0 0 0 0 0 0 0 0 0 0 0
0 0 0 0 0 0 0 0 0 0 0 0 0 0 0 0 0 0 0 0 0 0 0 0 0 0 0 0 0 0 0 0 0 0 0 0 0 0 0 0 0 0 0 0
0 0 0 0 0 0 0 0 0 0 0 0 0 0 0 0 0 0 0 0 0 0 0 0 0 0 0 0 0 0 0 0 0 0 0 0 0 0 0 0 0 0 0 0
0 0 0 0 0 0 0 0 0 0 0 0 0 0 0 0 0 0 0 0 0 0 0 0 0 0 0 0 0 0 0 0 0 0 0 0 0 0 0 0 0 0 0 0
0 0 0 0 0 0 0 0 0 0 0 0 0 0 0 0 0 0 0 0 0 0 0 0 0 0 0 0 0 0 0 0 0 0 0 0 0 0 0 0 0 0 0 0
0 0 0 0 0 0 0 0 0 0 0 0 0 0 0 0 0 0 0 0 0 0 0 0 0 0 0 0 0 0 0 0 0 0 0 0 0 0 0 0 0 0 0 0
0 0 0 0 0 0 0 0 0 0 0 0 0 0 0 0 0 0 0 0 0 0 0 0 0 0 0 0 0 0 0 0 0 0 0 0 0 0 0 0 0 0 0 0
0 0 0 0 0 0 0 0 0 0 0 0 0 0 0 0 0 0 0 0 0 0 0 0 0 0 0 0 0 0 0 0 0 0 0 0 0 0 0 0 0 0 0 0
0 0 0 0 0 0 0 0 0 0 0 0 0 0 0 0 0 0 0 0 0 0 0 0 0 0 0 0 0 0 0 0 0 0 0 0 0 0 0 0 0 0 0 0
0 0 0 0 0 0 0 0 0 0 0 0 0 0 0 0 0 0 0 0 0 0 0 0 0 0 0 0 0 0 0 0 0 0 0 0 0 0 0 0 0 0 0 0
0 0 0 0 0 0 0 0 0 0 0 0 0 0 0 0 0 0 0 0 0 0 0 0 0 0 0 0 0 0 0 0 0 0 0 0 0 0 0 0 0 0 0 0
0 0 0 0 0 0 0 0 0 0 0 0 0 0 0 0 0 0 0 0 0 0 0 0 0 0 0 0 0 0 0 0 0 0 0 0 0 0 0 0 0 0 0 0
0 0 0 0 0 0 0 0 0 0 0 0 0 0 0 0 0 0 0 0 0 0 0 0 0 0 0 0 0 0 0 0 0 0 0 0 0 0 0 0 0 0 0 0
0 0 0 0 0 0 0 0 0 0 0 0 0 0 0 0 0 0 0 0 0 0 0 0 0 0 0 0 0 0 0 0 0 0 0 0 0 0 0 0 0 0 0 0
0 0 0 0 0 0 0 0 0 0 0 0 0 0 0 0 0 0 0 0 0 0 0 0 0 0 0 0 0 0 0 0 0 0 0 0 0 0 0 0 0 0 0 0
0 0 0 0 0 0 0 0 0 0 0 0 0 0 0 0 0 0 0 0 0 0 0 0 0 0 0 0 0 0 0 0 0 0 0 0 0 0 0 0 0 0 0 0
0 0 0 0 0 0 0 0 0 0 0 0 0 0 0 0 0 0 0 0 0 0 0 0 0 0 0 0 0 0 0 0 0 0 0 0 0 0 0 0 0 0 0 0
0 0 0 0 0 0 0 0 0 0 0 0 0 0 0 0 0 0 0 0 0 0 0 0 0 0 0 0 0 0 0 0 0 0 0 0 0 0 0 0 0 0 0 0
0 0 0 0 0 0 0 0 0 0 0 0 0 0 0 0 0 0 0 0 0 0 0 0 0 0 0 0 0 0 0 0 0 0 0 0 0 0 0 0 0 0 0 0
0 0 0 0 0 0 0 0 0 0 0 0 0 0 0 0 0 0 0 0 0 0 0 0 0 0 0 0 0 0 0 0 0 0 0 0 0 0 0 0 0 0 0 0
0 0 0 0 0 0 0 0 0 0 0 0 0 0 0 0 0 0 0 0 0 0 0 0 0 0 0 0 0 0 0 0 0 0 0 0 0 0 0 0 0 0 0 0
0 0 0 0 0 0 0 0 0 0 0 0 0 0 0 0 0 0 0 0 0 0 0 0 0 0 0 0 0 0 0 0 0 0 0 0 0 0 0 0 0 0 0 0
0 0 0 0 0 0 0 0 0 0 0 0 0 0 0 0 0 0 0 0 0 0 0 0 0 0 0 0 0 0 0 0 0 0 0 0 0 0 0 0 0 0 0 0
0 0 0 0 0 0 0 0 0 0 0 0 0 0 0 0 0 0 0 0 0 0 0 0 0 0 0 0 0 0 0 0 0 0 0 0 0 0 0 0 0 0 0 0
0 0 0 0 0 0 0 0 0 0 0 0 0 0 0 0 0 0 0 0 0 0 0 0 0 0 0 0 0 0 0 0 0 0 0 0 0 0 0 0 0 0 0 0
0 0 0 0 0 0 0 0 0 0 0 0 0 0 0 0 0 0 0 0 0 0 0 0 0 0 0 0 0 0 0 0 0 0 0 0 0 0 0 0 0 0 0 0
Wind_Speed
7 6 4 5 7 6 6 7 7 7 7 7 5 4 3 2 2 1 2 2 2 2 2 3 3 3 4 4 5 6 6 6 6 5 5 5 5 5 5 4 4 4 4 3
6 5 4 5 6 8 8 7 7 6 7 5 3 1 1 2 3 3 4 3 2 2 2 3 4 5 5 5 5 5 6 6 5 5 5 5 5 5 5 4 4 4 4 4
5 4 2 4 5 5 4 3 5 7 7 4 3 2 4 4 5 6 5 4 3 3 3 3 3 4 5 5 5 6 5 5 5 6 5 5 5 6 5 5 4 4 3 4
3 0 4 4 1 1 2 2 2 3 4 4 4 5 4 3 4 4 4 4 4 3 3 3 3 3 4 4 5 5 5 5 5 6 5 5 5 5 5 4 4 4 3 3
2 2 3 4 3 3 2 4 3 4 5 5 4 3 4 2 2 3 4 4 3 3 3 2 3 3 4 5 5 5 5 5 5 6 6 5 5 5 4 4 4 4 3 3
2 2 3 4 7 7 2 4 5 5 6 5 3 2 5 4 2 2 1 0 1 2 2 2 2 3 5 5 5 5 5 4 4 5 6 5 5 5 4 4 4 4 3 3
2 2 3 6 10 5 1 4 7 6 6 4 3 4 4 3 3 2 1 1 2 2 2 2 2 3 4 4 4 4 4 4 4 4 4 4 4 4 4 4 4 3 3 2
0 1 4 8 7 3 4 5 6 6 5 4 4 3 3 3 3 3 2 2 2 3 2 1 2 3 3 3 3 3 4 4 3 4 3 3 4 3 4 4 4 3 2 1
1 2 3 6 5 5 4 5 5 5 5 4 4 3 3 3 3 3 3 2 2 3 3 2 2 3 3 2 3 4 4 3 3 3 3 3 4 4 3 3 4 3 3 3
2 3 5 7 7 7 7 6 6 5 5 4 4 3 3 3 3 3 3 3 3 3 3 2 2 1 2 2 4 5 4 3 2 3 2 2 2 3 3 4 4 3 3 3
2 5 6 6 8 9 8 7 7 6 5 5 4 4 3 2 3 2 3 3 3 3 2 1 2 2 2 2 4 4 4 3 2 2 2 2 1 1 2 3 4 5 4 4
3 5 5 8 9 9 8 8 8 7 7 6 4 3 3 2 2 2 2 2 3 3 2 2 2 2 2 2 3 4 3 2 2 2 1 2 2 1 0 1 2 3 4 4
4 6 5 6 7 8 7 8 7 6 6 6 5 4 3 3 3 3 3 3 2 2 2 2 2 2 2 1 2 3 2 2 1 1 1 2 2 2 1 1 1 1 3 3
6 5 5 6 7 8 8 7 7 6 6 5 4 4 4 4 4 4 3 3 2 2 2 2 2 2 1 1 2 2 1 1 1 1 1 1 1 1 2 2 1 1 1 2
8 6 5 6 6 7 7 7 7 8 7 7 5 5 5 5 5 4 3 3 3 3 2 2 2 2 2 1 1 1 1 1 1 1 1 1 1 1 1 1 1 1 1 1
8 7 6 6 8 8 8 8 7 7 7 6 6 6 6 5 4 4 4 3 3 3 2 2 2 2 1 1 1 1 0 1 1 1 1 1 1 1 1 1 1 1 1 1
7 7 8 8 8 7 7 7 6 6 6 6 6 6 6 5 5 5 5 4 3 3 3 2 2 2 2 1 1 0 0 1 1 1 1 1 1 1 1 1 1 1 1 2
6 5 5 5 6 6 7 6 6 6 6 6 5 5 5 5 5 5 5 5 4 4 4 4 3 3 2 2 1 1 0 0 0 1 1 1 1 1 1 1 1 1 1 2
7 7 7 7 6 5 5 6 6 6 6 5 5 5 5 5 4 4 4 4 4 4 5 4 5 4 3 3 3 1 1 0 0 0 0 1 1 1 1 1 1 2 2 2
8 7 7 7 7 6 6 6 5 5 6 5 4 5 5 5 5 4 4 3 3 3 4 4 4 3 3 3 3 1 1 1 1 1 1 1 1 1 1 2 2 2 2 3
8 8 7 7 7 7 6 6 5 6 6 5 4 4 4 5 4 3 3 3 4 4 4 5 3 3 2 3 3 1 1 1 1 1 1 1 1 2 2 2 2 3 3 3
7 6 7 6 6 7 6 6 5 5 6 5 5 4 4 5 5 4 3 2 4 6 4 3 3 4 5 4 2 1 1 2 2 1 1 2 2 2 2 2 3 3 3 3
6 6 6 6 6 6 6 5 5 5 5 5 5 5 5 4 3 3 4 4 3 6 5 3 5 7 7 3 2 2 2 2 2 2 2 2 2 3 3 3 3 3 3 3
6 6 6 6 5 5 6 6 6 5 5 4 5 5 4 4 3 3 3 6 8 8 4 6 8 8 7 2 2 2 2 2 2 2 2 2 2 2 3 3 3 3 3 4
5 5 5 6 5 5 5 6 6 5 5 4 5 5 4 3 3 4 4 5 8 7 4 6 8 8 4 2 2 3 2 3 3 3 2 2 3 3 3 3 3 3 3 4
5 5 4 5 4 4 4 5 5 5 5 5 5 4 4 4 4 4 4 5 6 7 5 4 4 5 3 3 3 3 3 3 4 3 3 3 3 3 3 3 4 4 4 4
5 4 4 4 4 5 5 5 5 5 5 5 6 5 5 4 4 4 4 4 4 4 4 4 4 3 3 3 3 3 3 3 3 3 3 3 3 3 3 4 4 4 4 4
Wind_Direction
265 267 256 247 240 234 228 219 220 238 244 259 257 248 237 228 240 245 249 232 211 200 204 192 180 177 176 173 170 162 158 161 167 161 150 147 148 153 152 151 156 153 149 148
278 260 259 270 254 235 236 235 239 251 262 278 280 282 251 215 217 235 240 234 225 220 211 198 189 184 178 175 175 165 163 165 160 150 145 146 145 143 140 140 141 142 147 148
276 276 307 270 265 241 219 218 220 241 260 286 293 266 242 237 232 228 229 226 220 219 212 211 207 192 185 182 168 161 163 161 158 152 149 155 151 143 147 150 146 148 155 155
274 308 222 244 273 249 213 269 266 268 297 295 270 263 257 239 223 236 236 227 221 215 209 208 199 191 179 166 158 157 157 159 159 155 153 153 150 150 154 155 159 161 166 167
231 230 264 305 331 320 262 281 312 300 308 311 308 322 311 301 263 247 232 231 223 214 202 182 179 173 157 156 156 154 157 161 164 158 153 154 154 158 161 159 161 165 170 172
215 234 248 302 310 308 259 272 326 327 306 309 332 301 287 310 312 324 322 236 170 149 128 138 164 153 148 154 153 160 165 163 158 155 156 162 168 168 162 162 166 164 168 180
223 234 268 314 321 344 124 281 321 319 313 312 282 260 285 320 338 351 15 71 101 114 119 136 141 133 146 152 165 169 154 146 145 150 154 161 165 165 160 159 157 162 169 189
216 239 290 334 351 7 295 306 323 333 330 322 312 326 354 9 17 31 46 58 81 95 86 85 117 128 143 162 159 136 134 138 147 152 156 151 149 156 161 159 159 170 168 189
245 252 306 339 338 327 326 330 331 334 336 348 352 357 9 18 26 30 52 53 62 90 76 48 68 121 143 157 133 127 128 136 147 144 143 151 155 163 167 168 169 179 179 190
320 316 335 344 350 349 351 347 339 339 345 1 358 359 10 19 24 28 30 49 66 82 81 52 44 81 130 135 132 130 133 137 139 137 137 146 158 172 175 178 180 185 189 196
300 315 336 353 352 345 347 351 354 356 2 6 10 7 7 15 19 25 21 30 63 86 87 54 46 55 70 115 125 126 131 136 137 144 153 150 152 176 187 203 198 191 195 194
304 317 319 319 334 342 350 354 355 0 3 4 9 15 14 14 12 29 43 50 60 64 64 46 51 48 43 82 117 124 126 134 147 148 149 151 148 119 67 193 214 219 220 219
312 320 320 318 334 348 353 352 353 358 358 356 6 16 22 20 17 32 42 46 53 58 53 48 52 42 20 52 100 122 138 148 145 149 157 160 164 163 165 65 76 198 217 229
341 344 342 344 340 346 350 353 0 5 3 6 15 21 24 25 27 31 32 31 41 48 44 46 52 29 360 55 87 96 115 143 157 163 163 164 171 181 177 174 189 275 253 233
352 349 330 330 351 357 357 4 12 11 9 14 20 21 20 20 18 14 18 25 36 40 33 38 42 3 349 58 97 111 130 155 159 163 162 157 160 164 158 159 184 228 286 287
332 343 354 3 5 2 3 7 10 4 3 7 12 11 9 11 12 10 12 20 31 18 8 17 12 344 356 44 64 66 67 131 142 157 157 148 143 143 145 153 170 202 245 266
347 352 353 353 355 357 360 360 358 356 357 1 2 0 5 12 15 12 9 9 14 5 360 3 355 356 7 27 44 35 37 111 103 128 147 156 158 165 173 184 205 226 253 277
349 343 342 342 344 348 352 356 358 358 355 352 357 4 6 8 6 359 355 2 11 10 1 355 358 2 1 1 9 4 28 100 143 165 171 175 185 186 189 217 239 256 269 281
355 355 357 357 353 351 350 352 352 351 351 355 3 3 358 356 353 350 352 1 3 353 345 350 358 4 358 352 355 0 9 8 358 222 209 232 244 228 233 242 253 262 271 277
354 355 357 357 356 355 349 347 350 352 351 353 360 2 0 353 349 350 358 355 340 321 321 336 347 348 340 334 340 340 328 303 271 254 248 239 240 248 250 256 262 266 269 273
346 349 352 353 350 349 346 345 349 349 347 351 355 351 344 339 339 342 350 341 331 331 335 339 343 333 326 325 332 330 309 291 277 260 255 255 258 259 259 264 268 270 271 275
337 340 343 343 344 342 339 341 344 343 347 349 348 346 344 342 342 340 333 315 316 331 336 330 327 324 325 329 333 324 308 295 285 274 262 257 256 259 261 264 267 272 273 274
332 333 336 336 334 329 333 340 341 341 343 342 342 339 334 327 327 329 326 325 324 329 329 319 321 324 329 337 328 316 308 300 289 277 267 259 257 256 258 263 266 270 272 275
332 333 332 330 330 335 339 337 336 337 333 329 332 331 329 326 324 322 310 318 328 329 326 321 326 327 330 331 319 310 301 296 291 283 276 271 267 265 264 267 270 273 274 277
330 329 332 336 338 334 331 332 333 334 333 331 329 328 326 319 313 315 319 320 325 329 325 325 328 327 328 315 305 297 292 284 283 282 275 273 271 269 269 267 267 270 272 273
327 327 324 321 321 323 325 328 328 328 329 327 325 325 325 322 318 316 316 318 320 323 323 316 316 320 316 307 300 295 290 293 297 291 280 277 274 272 271 271 271 271 273 274
328 327 326 330 334 333 328 325 323 322 323 320 317 318 320 320 318 317 316 315 316 316 313 311 311 311 309 306 302 298 294 290 288 285 281 275 271 269 270 269 270 271 273 273